Location: Alfortville
(48.8058°N, 2.4204°E)
Time: 22:37:48
(UTC+00:00)

SR - Pass Details

Date: 19 April 2026
Orbit: 568 x 852 km, 66.7° (Epoch: 19 May)

Event Time Altitude Azimuth Distance (km) Brightness Sun altitude
Rises 23:31:17 0° 311° (NW) 3,331 ? -29.6°
Reaches altitude 10° 23:34:38 10° 290° (WNW) 2,434 ? -29.7°
Enters shadow 23:36:43 15° 269° (W) 2,122 ? -29.7°
